Location: Ferintosh
(52.7647°N, 112.9692°W)
Time: 15:29:06
(UTC+00:00)

Transit 2A Rocket - Pass Details

Date: 22 May 2024
Orbit: 583 x 910 km, 66.7° (Epoch: 22 June)

Event Time Altitude Azimuth Distance (km) Brightness Sun altitude
Rises 13:32:06 0° 256° (WSW) 3,077 7.5 16.7°
Reaches altitude 10° 13:34:34 10° 267° (W) 2,216 6.9 17.1°
Maximum altitude 13:39:08 32° 330° (NNW) 1,305 6.2 17.8°
Drops below altitude 10° 13:44:05 10° 33° (NNE) 2,422 8.3 18.5°
Sets 13:46:55 0° 43° (NE) 3,410 9.2 18.9°
